Weather History for Danville, VA

Change the Weather History Date:

Wednesday, October 3, 2012

  Actual Average Record
Temperature  
Mean Temperature 77 °F 64 °F  
Max Temperature 84 °F 74 °F 94 °F (1954)
Min Temperature 69 °F 54 °F 30 °F (1974)
Degree Days  
Heating Degree Days 0 4  
Month to date heating degree days 3 10  
Since 1 July heating degree days 25 38  
Cooling Degree Days 12 2  
Month to date cooling degree days 18 6  
Year to date cooling degree days 1581 1409  
Growing Degree Days 26 (Base 50)    
Moisture  
Dew Point 68 °F    
Average Humidity 78    
Maximum Humidity 100    
Minimum Humidity 55    
Precipitation  
Precipitation 0.00 in 0.11 in 2.15 in (1979)
Month to date precipitation 0.28 0.35  
Year to date precipitation 24.25 34.60  
Snow  
Snow 0.00 in - - ()
Month to date snowfall 0.0  
Since 1 July snowfall 0.0  
Since 1 September snowfall 0.0  
Snow Depth 0.00 in    
Sea Level Pressure  
Sea Level Pressure 30.05 in    
Wind  
Wind Speed 2 mph (SW)    
Max Wind Speed 10 mph    
Max Gust Speed 13 mph    
Visibility 6 miles    
Events Fog    
T = Trace of Precipitation, MM = Missing Value Source: NWS Daily Summary

Daily Weather History Graph

Daily Weather History Graph

Search for Another Location

Airport:

Trip Planner

Search our weather history database for the weather conditions in past years. The results will help you decide how hot, cold, wet, or windy it might be!

Date:

Astronomy

Oct. 03, 2012 Rise Set
Actual Time 7:14 AM EDT 6:57 PM EDT
Civil Twilight 6:48 AM EDT 7:22 PM EDT
Nautical Twilight 6:18 AM EDT 7:52 PM EDT
Astronomical Twilight 5:48 AM EDT 8:22 PM EDT
Moon 8:55 PM EDT (10/3) 10:29 AM EDT (10/3)
Length of Visible Light 12h 34m
Length of Day
11h 42m
Waning Gibbous, 89% of the Moon is Illuminated
Oct 3
Waning Gibbous
Oct 8
Last Quarter
Oct 15
New
Oct 21
First Quarter
Oct 29
Full

Hourly Weather History & Observations

Time (EDT) Temp. Heat Index Dew Point Humidity Pressure Visibility Wind Dir Wind Speed Gust Speed Precip Events Conditions
12:28 AM 71.6 °F - 68.0 °F 88% 29.97 in 7.0 mi Calm Calm - N/A   Mostly Cloudy
12:53 AM 71.1 °F - 68.0 °F 90% 29.95 in 7.0 mi Calm Calm - N/A   Overcast
1:53 AM 70.0 °F - 68.0 °F 93% 29.96 in 4.0 mi Calm Calm - N/A   Mostly Cloudy
2:02 AM 69.8 °F - 66.2 °F 88% 29.99 in 3.0 mi Calm Calm - N/A   Scattered Clouds
2:53 AM 69.1 °F - 66.9 °F 93% 29.98 in 3.0 mi Calm Calm - N/A   Overcast
2:57 AM 69.8 °F - 66.2 °F 88% 30.01 in 2.0 mi Calm Calm - N/A   Overcast
3:04 AM 69.8 °F - 66.2 °F 88% 30.01 in 1.5 mi Calm Calm - N/A   Overcast
3:15 AM 69.8 °F - 66.2 °F 88% 30.01 in 3.0 mi Calm Calm - N/A   Overcast
3:22 AM 69.8 °F - 66.2 °F 88% 30.01 in 8.0 mi Calm Calm - N/A   Overcast
3:53 AM 70.0 °F - 68.0 °F 93% 29.99 in 8.0 mi Calm Calm - N/A   Overcast
4:53 AM 70.0 °F - 68.0 °F 93% 30.00 in 4.0 mi Calm Calm - N/A   Overcast
5:01 AM 71.6 °F - 69.8 °F 94% 30.04 in 1.8 mi Calm Calm - N/A   Overcast
5:26 AM 71.6 °F - 69.8 °F 94% 30.04 in 2.5 mi Calm Calm - N/A   Overcast
5:43 AM 71.6 °F - 69.8 °F 94% 30.04 in 3.0 mi Calm Calm - N/A   Overcast
5:53 AM 71.1 °F - 69.1 °F 93% 30.02 in 4.0 mi Calm Calm - N/A   Overcast
6:41 AM 71.6 °F - 69.8 °F 94% 30.06 in 1.8 mi Calm Calm - N/A   Overcast
6:53 AM 71.1 °F - 69.1 °F 93% 30.03 in 0.5 mi Calm Calm - N/A Fog Fog
7:01 AM 71.6 °F - 69.8 °F 94% 30.06 in 0.2 mi Calm Calm - N/A Fog Fog
7:53 AM 71.1 °F - 69.1 °F 93% 30.05 in 0.2 mi Calm Calm - N/A Fog Fog
8:53 AM 72.0 °F - 70.0 °F 93% 30.07 in 0.2 mi Calm Calm - N/A Fog Fog
9:31 AM 71.6 °F - 71.6 °F 100% 30.11 in 0.5 mi Calm Calm - N/A Fog Fog
9:49 AM 71.6 °F - 71.6 °F 100% 30.11 in 2.0 mi Calm Calm - N/A   Overcast
9:50 AM 72.0 °F - 71.1 °F 97% 30.08 in 2.0 mi Calm Calm - N/A   Overcast
10:01 AM 73.4 °F - 71.6 °F 94% 30.11 in 4.0 mi Calm Calm - N/A   Overcast
10:53 AM 73.9 °F - 71.1 °F 91% 30.09 in 10.0 mi WSW 3.5 mph - N/A   Mostly Cloudy
11:05 AM 75.2 °F - 71.6 °F 89% 30.12 in 10.0 mi Calm Calm - N/A   Partly Cloudy
11:53 AM 79.0 °F - 66.0 °F 64% 30.09 in 10.0 mi Calm Calm - N/A   Partly Cloudy
12:53 PM 81.0 °F 83.0 °F 66.0 °F 60% 30.09 in 10.0 mi Variable 4.6 mph - N/A   Mostly Cloudy
1:53 PM 82.0 °F 84.1 °F 66.0 °F 58% 30.07 in 10.0 mi SW 5.8 mph - N/A   Scattered Clouds
2:53 PM 82.9 °F 84.6 °F 64.9 °F 54% 30.06 in 10.0 mi SW 5.8 mph - N/A   Partly Cloudy
3:53 PM 82.0 °F 84.1 °F 66.0 °F 58% 30.05 in 10.0 mi Variable 3.5 mph - N/A   Scattered Clouds
5:53 PM 79.0 °F - 66.9 °F 66% 30.07 in 10.0 mi Calm Calm - N/A   Clear
6:53 PM 75.0 °F - 70.0 °F 84% 30.09 in 10.0 mi Calm Calm - N/A   Clear
7:53 PM 73.0 °F - 69.1 °F 87% 30.09 in 10.0 mi Calm Calm - N/A   Partly Cloudy
8:53 PM 72.0 °F - 68.0 °F 87% 30.11 in 10.0 mi SSW 3.5 mph - N/A   Clear
9:53 PM 72.0 °F - 68.0 °F 87% 30.13 in 10.0 mi SSW 3.5 mph - N/A   Clear
11:53 PM 72.0 °F - 64.9 °F 78% 30.14 in 10.0 mi WSW 6.9 mph - N/A   Clear